Home   Weather   Mashhad   Past weeks

Flag for Iran Past Weather in Mashhad, Iran — Yesterday and Last 2 Weeks

Now
82 °F

Sunny.


Feels Like: 80 °F
Forecast: 57 / 83 °F
Wind: 7 mph from East

Location: Mashhad Airport

Current Time: Sep 27, 2016 at 12:20:36 PM

Latest Report: Sep 27, 2016 at 11:30 AM


Visibility: 10 mi

Pressure: 30.04 "Hg (26.88 "Hg at 981m altitude)

Humidity: 23%

Dew Point: 41 °F

Location of MashhadLocation

Past Weather in Mashhad — Graph

°F

Mashhad Temperature Yesterday

Maximum temperature yesterday: 84 °F (at 1:30 PM)
Minimum temperature yesterday: 63 °F (at 3:00 AM)
Average temperature yesterday: 72 °F

High & Low Weather Summary for the Past Weeks

 TemperatureHumidityPressure
High99 °F (Sep 24, 2:30 PM)82% (Sep 14, 6:00 AM)30.15 "Hg (Sep 14, 6:00 AM)
Low59 °F (Sep 14, 6:00 AM)6% (Sep 22, 1:30 PM)29.77 "Hg (Sep 24, 2:00 PM)
Average77 °F30%29.97 "Hg
* Reported Sep 12 11:30 AM — Sep 27 10:30 AM, Mashhad, Weather by CustomWeather, © 2016

Note: Actual official high and low records may vary slightly from our data, if they occured in-between our weather recording intervals... More about our weather records

Advertising

Mashhad Weather History for the Previous 24 Hours

Scroll right to see more
 ConditionsComfort  
Time TempWeatherWind HumidityBarometerVisibility
10:30 AM
Tue, Sep 27
79 °FSunny.7 mph28%30.04 "Hg10 mi
10:00 AM79 °FSunny.7 mph30%30.07 "Hg10 mi
9:30 AM77 °FSunny.5 mph32%30.07 "Hg10 mi
9:00 AM75 °FSunny.9 mph34%30.07 "Hg10 mi
8:30 AM72 °FSunny.7 mph38%30.07 "Hg10 mi
8:00 AM72 °FSunny.5 mph41%30.07 "Hg10 mi
7:30 AM68 °FSunny.5 mph46%30.04 "Hg10 mi
7:00 AM68 °FSunny.5 mph46%30.04 "Hg10 mi
6:30 AM64 °FSunny.5 mph52%30.04 "Hg10 mi
6:00 AM63 °FSunny.5 mph56%30.04 "Hg10 mi
5:30 AM61 °FClear.5 mph59%30.04 "Hg10 mi
5:00 AM61 °FClear.5 mph63%30.01 "Hg10 mi
4:30 AM61 °FClear.5 mph59%30.01 "Hg10 mi
4:00 AM61 °FClear.5 mph59%30.01 "Hg10 mi
3:30 AM61 °FClear.No wind59%30.04 "Hg10 mi
3:00 AM61 °FClear.5 mph59%30.04 "Hg10 mi
2:30 AM63 °FClear.5 mph56%30.04 "Hg10 mi
2:00 AM63 °FClear.5 mph56%30.04 "Hg10 mi
1:30 AM63 °FClear.5 mph56%30.04 "Hg10 mi
1:00 AM66 °FClear.5 mph49%30.04 "Hg10 mi
12:30 AM66 °FClear.7 mph49%30.04 "Hg10 mi
12:00 AM66 °FClear.7 mph49%30.04 "Hg10 mi
11:30 PM
Mon, Sep 26
66 °FClear.7 mph52%30.04 "Hg10 mi
11:00 PM68 °FClear.5 mph46%30.04 "Hg10 mi
10:30 PM68 °FClear.7 mph46%30.04 "Hg10 mi
10:00 PM68 °FClear.7 mph49%30.04 "Hg10 mi
9:30 PM68 °FClear.7 mph46%30.04 "Hg10 mi
9:00 PM68 °FClear.7 mph49%30.04 "Hg10 mi
8:30 PM70 °FClear.7 mph46%30.04 "Hg10 mi
8:00 PM70 °FClear.9 mph46%30.04 "Hg10 mi
7:30 PM72 °FClear.12 mph47%30.01 "Hg10 mi
7:00 PM72 °FClear.12 mph44%30.01 "Hg10 mi
6:00 PM73 °FClear.9 mph41%29.98 "Hg10 mi
5:30 PM75 °FSunny.14 mph39%29.98 "Hg10 mi
5:00 PM79 °FSunny.12 mph32%29.95 "Hg10 mi
4:30 PM81 °FSunny.12 mph30%29.95 "Hg10 mi
4:00 PM81 °FSunny.9 mph26%29.95 "Hg10 mi
3:30 PM82 °FSunny.9 mph25%29.95 "Hg10 mi
3:00 PM82 °FSunny.12 mph25%29.95 "Hg10 mi
2:30 PM82 °FSunny.9 mph26%29.95 "Hg10 mi
1:30 PM84 °FSunny.7 mph25%29.95 "Hg10 mi
1:00 PM81 °FSunny.9 mph28%29.95 "Hg10 mi
12:30 PM82 °FSunny.7 mph26%29.98 "Hg10 mi
12:00 PM82 °FSunny.7 mph28%29.98 "Hg10 mi
Weather by CustomWeather, © 2016

See weather overviewHow to use our weather pages